This demonstration page uses our WeatherBlox Daily Observations layout. Learn more.

Hourly Observations for December 3, 2019

Temp ( °F °C ) Dew Point ( °F °C ) Humidity (%) Winds ( mph kmh ) Pressure ( in mb ) Visibility ( mi km ) Precip ( " mm )
12:54 am 00:54 Clear 34 1.1 22 -5.6 61 61 SW 6 9 29.95 1014 10 16.0934 0 0
1:54 am 01:54 Clear 35 1.7 24 -4.4 64 64 WSW 6 9 29.94 1014 10 16.0934 0 0
2:54 am 02:54 Clear 34 1.1 25 -3.9 70 70 Calm 29.92 1013 10 16.0934 0 0
3:54 am 03:54 Clear 30 -1.1 25 -3.9 82 82 S 3 6 29.93 1014 10 16.0934 0 0
4:54 am 04:54 Clear 29 -1.7 25 -3.9 85 85 SSW 3 6 29.91 1013 10 16.0934 0 0
5:54 am 05:54 Clear 28 -2.2 25 -3.9 88 88 Calm 29.91 1013 10 16.0934 0 0
6:54 am 06:54 Partly Cloudy 27 -2.8 24 -4.4 89 89 SSW 3 6 29.92 1013 10 16.0934 0 0
7:54 am 07:54 Partly Cloudy 29 -1.7 25 -3.9 85 85 SW 5 7 29.93 1014 10 16.0934 0 0
8:54 am 08:54 Sunny 37 2.8 27 -2.8 67 67 W 6 9 29.92 1013 10 16.0934 0 0
9:54 am 09:54 Sunny 43 6.1 28 -2.2 56 56 W 6 9 29.92 1013 10 16.0934 0 0
10:54 am 10:54 Sunny 49 9.4 30 -1.1 48 48 NW 15 24 29.92 1013 10 16.0934 0 0
11:54 am 11:54 Sunny 52 11.1 30 -1.1 43 43 NW 16 26 29.9 1013 10 16.0934 0 0
12:54 pm 12:54 Sunny 55 12.8 30 -1.1 38 38 NW 18 30 29.89 1012 10 16.0934 0 0
1:54 pm 13:54 Sunny 56 13.3 30 -1.1 37 37 NW 15 24 29.88 1012 10 16.0934 0 0
2:54 pm 14:54 Sunny 55 12.8 31 -0.6 40 40 WNW 12 19 29.9 1013 10 16.0934 0 0
3:54 pm 15:54 Sunny 53 11.7 31 -0.6 43 43 WNW 14 22 29.92 1013 10 16.0934 0 0
4:54 pm 16:54 Sunny 49 9.4 31 -0.6 50 50 WNW 13 20 29.93 1013 10 16.0934 0 0
5:54 pm 17:54 Clear 44 6.7 31 -0.6 60 60 W 8 13 29.95 1014 10 16.0934 0 0
6:54 pm 18:54 Clear 41 5 30 -1.1 65 65 W 7 11 29.96 1014 10 16.0934 0 0
7:54 pm 19:54 Clear 40 4.4 30 -1.1 68 68 W 7 11 29.96 1015 10 16.0934 0 0
8:54 pm 20:54 Clear 42 5.6 29 -1.7 60 60 WNW 9 15 29.95 1014 10 16.0934 0 0
9:54 pm 21:54 Clear 39 3.9 29 -1.7 67 67 W 5 7 29.94 1014 10 16.0934 0 0
10:54 pm 22:54 Clear 37 2.8 29 -1.7 73 73 WNW 6 9 29.95 1014 10 16.0934 0 0
11:54 pm 23:54 Clear 39 3.9 29 -1.7 67 67 WNW 3 6 29.95 1014 10 16.0934 0 0

Powered by AerisWeather